TimeCST,TemperatureF,Dew PointF,Humidity,Sea Level PressureIn,VisibilityMPH,Wind Direction,Wind SpeedMPH,Gust SpeedMPH,PrecipitationIn,Events,Conditions,WindDirDegrees,DateUTC
12:15 AM,31.3,25.3,79,30.18,10.0,Calm,Calm,-,N/A,,Clear,0,2013-03-08 06:15:00
12:35 AM,32.4,26.2,78,30.18,10.0,SE,8.1,-,N/A,,Clear,140,2013-03-08 06:35:00
12:55 AM,32.2,26.1,78,30.18,10.0,Calm,Calm,-,N/A,,Clear,0,2013-03-08 06:55:00
1:15 AM,32.0,25.9,78,30.18,10.0,SE,3.5,-,N/A,,Clear,130,2013-03-08 07:15:00
1:35 AM,32.0,25.9,78,30.18,10.0,Calm,Calm,-,N/A,,Clear,0,2013-03-08 07:35:00
1:55 AM,32.0,25.7,78,30.18,10.0,Calm,Calm,-,N/A,,Clear,0,2013-03-08 07:55:00
2:15 AM,32.0,25.7,78,30.17,10.0,SE,9.2,-,N/A,,Clear,140,2013-03-08 08:15:00
2:35 AM,32.0,26.1,79,30.17,10.0,SE,10.4,-,N/A,,Clear,140,2013-03-08 08:35:00
2:55 AM,32.2,25.9,78,30.16,10.0,SE,8.1,-,N/A,,Clear,140,2013-03-08 08:55:00
3:15 AM,32.0,25.9,78,30.16,10.0,SE,6.9,-,N/A,,Clear,140,2013-03-08 09:15:00
3:35 AM,32.0,26.1,79,30.15,10.0,SE,10.4,-,N/A,,Clear,140,2013-03-08 09:35:00
3:55 AM,32.0,26.1,79,30.14,10.0,SE,8.1,-,N/A,,Clear,140,2013-03-08 09:55:00
4:15 AM,32.4,26.2,78,30.14,10.0,SE,6.9,-,N/A,,Clear,140,2013-03-08 10:15:00
4:35 AM,32.5,26.1,77,30.14,10.0,SE,10.4,-,N/A,,Clear,140,2013-03-08 10:35:00
4:55 AM,32.4,26.2,78,30.14,10.0,SE,10.4,-,N/A,,Clear,140,2013-03-08 10:55:00
5:15 AM,32.5,26.2,78,30.14,10.0,SE,9.2,-,N/A,,Clear,140,2013-03-08 11:15:00
5:35 AM,32.0,26.1,79,30.14,10.0,SE,4.6,-,N/A,,Clear,130,2013-03-08 11:35:00
5:55 AM,32.4,26.4,79,30.14,10.0,Calm,Calm,-,N/A,,Clear,0,2013-03-08 11:55:00
6:15 AM,32.0,26.2,79,30.15,10.0,SE,8.1,-,N/A,,Clear,140,2013-03-08 12:15:00
6:35 AM,32.0,26.4,80,30.15,10.0,SE,8.1,-,N/A,,Clear,130,2013-03-08 12:35:00
6:55 AM,32.0,26.6,80,30.14,7.0,Calm,Calm,-,N/A,,Clear,0,2013-03-08 12:55:00
7:15 AM,32.9,26.6,78,30.14,10.0,SE,9.2,-,N/A,,Clear,140,2013-03-08 13:15:00
7:35 AM,33.6,27.1,77,30.14,10.0,SE,10.4,-,N/A,,Clear,140,2013-03-08 13:35:00
7:55 AM,35.2,27.9,74,30.14,10.0,SE,8.1,-,N/A,,Clear,130,2013-03-08 13:55:00
8:15 AM,36.5,28.0,71,30.14,10.0,SE,11.5,16.1,N/A,,Clear,140,2013-03-08 14:15:00
8:35 AM,36.9,28.8,72,30.14,10.0,SE,10.4,-,N/A,,Clear,140,2013-03-08 14:35:00
8:55 AM,40.3,29.8,66,30.14,10.0,SSE,10.4,-,N/A,,Clear,150,2013-03-08 14:55:00
9:15 AM,41.9,29.5,61,30.14,10.0,SSE,10.4,-,N/A,,Clear,150,2013-03-08 15:15:00
9:35 AM,44.1,30.0,58,30.14,10.0,SSE,11.5,-,N/A,,Clear,150,2013-03-08 15:35:00
9:55 AM,46.2,30.0,53,30.13,10.0,SSE,10.4,-,N/A,,Clear,150,2013-03-08 15:55:00
10:15 AM,48.0,30.2,50,30.13,10.0,SSE,11.5,-,N/A,,Clear,150,2013-03-08 16:15:00
10:35 AM,49.6,30.7,48,30.13,10.0,SE,11.5,-,N/A,,Clear,140,2013-03-08 16:35:00
10:55 AM,50.9,31.1,47,30.12,10.0,SSE,11.5,16.1,N/A,,Clear,150,2013-03-08 16:55:00
11:15 AM,50.9,31.5,47,30.12,10.0,SE,10.4,-,N/A,,Clear,140,2013-03-08 17:15:00
11:35 AM,50.9,31.8,48,30.12,10.0,SE,11.5,-,N/A,,Clear,140,2013-03-08 17:35:00
11:55 AM,52.3,31.8,46,30.12,10.0,SSE,11.5,17.3,N/A,,Clear,160,2013-03-08 17:55:00
12:15 PM,52.7,31.8,45,30.11,10.0,Calm,Calm,-,N/A,,Clear,0,2013-03-08 18:15:00
12:35 PM,53.6,32.0,44,30.11,10.0,SE,11.5,-,N/A,,Clear,130,2013-03-08 18:35:00
12:55 PM,55.9,32.2,41,30.09,10.0,SSE,13.8,-,N/A,,Clear,150,2013-03-08 18:55:00
1:15 PM,56.7,33.6,42,30.07,10.0,SE,11.5,-,N/A,,Clear,130,2013-03-08 19:15:00
1:35 PM,57.4,33.6,41,30.06,10.0,SE,11.5,16.1,N/A,,Clear,130,2013-03-08 19:35:00
1:55 PM,57.2,34.0,42,30.04,10.0,SE,15.0,20.7,N/A,,Clear,130,2013-03-08 19:55:00
2:15 PM,56.8,34.5,43,30.03,10.0,SE,15.0,21.9,N/A,,Clear,140,2013-03-08 20:15:00
2:35 PM,57.6,35.8,44,30.03,10.0,SSE,16.1,-,N/A,,Clear,150,2013-03-08 20:35:00
2:55 PM,57.4,35.8,44,30.04,10.0,SSE,15.0,20.7,N/A,,Scattered Clouds,150,2013-03-08 20:55:00
3:15 PM,56.7,35.6,45,30.02,10.0,SE,17.3,-,N/A,,Scattered Clouds,140,2013-03-08 21:15:00
3:35 PM,56.1,35.4,46,30.01,10.0,SE,16.1,21.9,N/A,,Scattered Clouds,130,2013-03-08 21:35:00
3:55 PM,55.4,35.2,47,30.01,10.0,SE,19.6,24.2,N/A,,Clear,140,2013-03-08 21:55:00
4:15 PM,54.1,35.2,49,30.00,10.0,SE,13.8,24.2,N/A,,Mostly Cloudy,130,2013-03-08 22:15:00
4:35 PM,52.2,35.2,53,30.00,10.0,SE,16.1,20.7,N/A,,Overcast,130,2013-03-08 22:35:00
4:55 PM,50.7,35.1,55,29.99,10.0,SE,15.0,19.6,N/A,,Overcast,130,2013-03-08 22:55:00
5:15 PM,49.5,34.9,57,29.99,10.0,SE,16.1,21.9,N/A,,Overcast,130,2013-03-08 23:15:00
5:35 PM,48.2,34.0,58,29.99,10.0,SE,20.7,25.3,N/A,,Overcast,140,2013-03-08 23:35:00
5:55 PM,47.5,34.0,59,29.99,10.0,SE,13.8,23.0,N/A,,Overcast,140,2013-03-08 23:55:00
6:15 PM,46.6,33.4,60,29.99,10.0,SE,18.4,24.2,N/A,,Overcast,140,2013-03-09 00:15:00
6:35 PM,45.9,33.8,63,29.99,10.0,SE,13.8,19.6,N/A,,Overcast,130,2013-03-09 00:35:00
6:55 PM,45.9,32.9,61,29.99,10.0,SE,18.4,24.2,N/A,,Overcast,130,2013-03-09 00:55:00
7:15 PM,45.5,32.9,61,29.99,10.0,SE,17.3,23.0,N/A,,Overcast,140,2013-03-09 01:15:00
7:35 PM,45.5,32.4,60,29.97,10.0,SE,19.6,26.5,N/A,,Overcast,140,2013-03-09 01:35:00
7:55 PM,45.5,32.4,60,29.98,10.0,SE,19.6,26.5,N/A,,Overcast,140,2013-03-09 01:55:00
8:15 PM,45.5,32.4,60,29.97,10.0,SE,18.4,25.3,N/A,,Overcast,140,2013-03-09 02:15:00
8:35 PM,45.9,32.4,59,29.97,10.0,SE,19.6,23.0,N/A,,Overcast,140,2013-03-09 02:35:00
8:55 PM,46.4,32.5,59,29.98,10.0,SE,16.1,21.9,N/A,,Overcast,140,2013-03-09 02:55:00
9:15 PM,46.9,32.9,58,29.97,10.0,SSE,21.9,26.5,N/A,,Overcast,150,2013-03-09 03:15:00
9:35 PM,46.2,34.3,63,29.97,10.0,SSE,18.4,24.2,N/A,Rain,Rain,150,2013-03-09 03:35:00
9:55 PM,45.7,34.9,66,29.97,10.0,SSE,15.0,21.9,N/A,,Light Drizzle,150,2013-03-09 03:55:00
10:15 PM,45.5,35.2,67,29.97,10.0,SSE,13.8,-,N/A,,Overcast,150,2013-03-09 04:15:00
10:35 PM,45.5,35.6,68,29.96,10.0,SSE,10.4,18.4,N/A,Rain,Light Rain,160,2013-03-09 04:35:00
10:55 PM,46.0,35.2,66,29.95,10.0,SSE,11.5,17.3,N/A,,Overcast,150,2013-03-09 04:55:00
11:15 PM,44.8,36.1,72,29.94,10.0,SSE,9.2,-,N/A,Thunderstorm,Unknown,150,2013-03-09 05:15:00
11:35 PM,44.2,37.6,77,29.93,10.0,SSE,9.2,-,N/A,Thunderstorm,Thunderstorm,150,2013-03-09 05:35:00
11:55 PM,44.1,37.9,79,29.92,10.0,SSE,9.2,-,N/A,,Overcast,150,2013-03-09 05:55:00